Regional Weather Roundup
Issued by NWS Sterling, VA

Home | Current Version | Previous Version | Text Only | Print | Product List | Glossary Off
Versions: 1 2 3 4 5 6 7 8 9 10 11 12 13 14 15 16 17 18 19 20 21 22 23 24 25 26 27 28 29 30 31 32 33 34 35 36 37 38 39 40 41 42 43 44 45 46 47 48 49 50

000
ASUS41 KLWX 302310
RWRLWX

REGIONAL WEATHER ROUNDUP
NATIONAL WEATHER SERVICE BALTIMORE MD/WASHINGTON DC
700 PM EDT THU JUL 30 2015

Note: "FAIR" indicates few or no clouds below 12,000 feet
with no significant weather and/or obstructions to visibility.
 TC=TEMPERATURE CELSIUS

 * =Non NWS site. Station does not report precipitation (e.g. rain,
    snow, etc.), thunder, or fog.

DCZ001-MDZ009-015-VAZ040>042-051-053>054-310000-
WASHINGTON METRO

CITY           SKY/WX    TMP DP  RH WIND       PRES   REMARKS
WASHINGTON NAT PTSUNNY   84  74  71 S9        29.87R HX  91
DULLES         PTSUNNY   85  74  69 SW6       29.86S HX  92
ANDREWS AFB    MOSUNNY   80  74  84 S6        29.87R
FT BELVOIR     MOSUNNY   79  74  84 E2        29.86S
QUANTICO       PTSUNNY   80  73  80 CALM      29.84S
COLLEGE PARK*  MOSUNNY   84  73  70 S6        29.86R HX  91
LEESBURG*      MOSUNNY   88  79  74 SW6       29.88R HX 102
MANASSAS*      MOSUNNY   81  79  94 S7        29.87R
GAITHERSBURG*  MOSUNNY   84  72  65 W5        29.90R

$$

MDZ006>007-011-014-310000-
BALTIMORE METRO

CITY           SKY/WX    TMP DP  RH WIND       PRES   REMARKS
BWI AIRPORT    PTSUNNY   83  76  79 SW7       29.84S HX  91
MD SCIENCE CTR   N/A     84  75  74 MISG      29.84S HX  92
MARTIN STATE   MOSUNNY   82  79  89 S6        29.85F HX  93
ANNAPOLIS      MOSUNNY   81  74  79 S3        29.85R
FORT MEADE*    PTSUNNY   79  75  89 S6        29.88R

$$

MDZ012-015-019>023-310000-
MARYLAND EASTERN SHORE

CITY           SKY/WX    TMP DP  RH WIND       PRES   REMARKS
OCEAN CITY     PTSUNNY   82  75  79 SW13      29.86S
SALISBURY      CLOUDY    82  77  84 CALM      29.85F HX  90
BAY BRIDGE AP*   N/A     79  73  83 S6        29.86R
CAMBRIDGE*     CLOUDY    77  72  83 SW7       29.86S

$$

MDZ017>025-310000-
SOUTHERN MARYLAND

CITY           SKY/WX    TMP DP  RH WIND       PRES   REMARKS
PATUXENT RIVER LGT RAIN  76  74  93 S5        29.88R
ST INIGOES     RAIN      77  74  90 CALM      29.87S FOG
LEONARDTOWN*   CLOUDY    75  72  88 CALM      29.89F

$$

MDZ003>005-310000-
NORTH CENTRAL MARYLAND

CITY           SKY/WX    TMP DP  RH WIND       PRES   REMARKS
FREDERICK*     MOSUNNY   90  68  48 VRB6      29.88R HX  93
HAGERSTOWN APT MOSUNNY   89  56  32 NW9       29.88R
WESTMINSTER*   MOSUNNY   84  77  79 W5        29.88R HX  94

$$

MDZ501>502-310000-
WESTERN MARYLAND

CITY           SKY/WX    TMP DP  RH WIND       PRES   REMARKS
OAKLAND*       NOT AVBL
CUMBERLAND*    SUNNY     88  54  31 W8        29.95R

$$

VAZ025>031-310000-
SHENANDOAH VALLEY

CITY           SKY/WX    TMP DP  RH WIND       PRES   REMARKS
WINCHESTER*    MOSUNNY   88  61  40 NW8       29.90R
FRONT ROYAL*   FAIR      82  64  54 N3        29.89R
LURAY*         FAIR      90  68  48 N7        29.91R HX  93
NEW MARKET*    FAIR      82  69  66 CALM      29.89R
STAUNTON*      MOSUNNY   83  71  66 NE5       29.94R
WAYNESBORO*    FAIR      82  72  71 N6        29.94R

$$

WVZ021-048>050-054>055-310000-
EASTERN WEST VIRGINIA PANHANDLE

CITY           SKY/WX    TMP DP  RH WIND       PRES   REMARKS
MARTINSBURG    MOSUNNY   86  60  41 W7        29.89R
PETERSBURG*    MOSUNNY  N/A N/A N/A NW12G17   29.95R

$$

VAZ036>039-050-310000-
CENTRAL FOOTHILLS

CITY           SKY/WX    TMP DP  RH WIND       PRES   REMARKS
CHARLOTTESVILL CLOUDY    78  74  87 W3        29.89S
CULPEPER*      CLOUDY    78  75  90 CALM      29.88S
ORANGE*        CLOUDY    81  77  89 CALM      29.90R
GORDONSVILLE*  CLOUDY    79  75  89 S3        29.88S FOG
WARRENTON*     PTSUNNY   80  78  92 SE3       29.87S

$$

VAZ055>057-310000-
NORTH AND CENTRAL PIEDMONT

CITY           SKY/WX    TMP DP  RH WIND       PRES   REMARKS
FREDERICKSBRG* MOSUNNY   81  80  98 CALM      29.86S HX  91
STAFFORD*      CLOUDY    78  74  88 CALM      29.91R

$$

NCZ024-NYZ072-PAZ021-071-VAZ022-071-310000-
OTHER REGIONAL OBSERVATIONS

CITY           SKY/WX    TMP DP  RH WIND       PRES   REMARKS
NEW YORK CITY  PTSUNNY   78  74  87 SW6       29.84S FOG
PHILADELPHIA   CLOUDY    80  74  81 SW8       29.84R
PITTSBURGH     MOSUNNY   84  55  36 W14       29.95S
ROANOKE        PTSUNNY   88  65  46 NW14G23   29.94R HX  90
RICHMOND       PTSUNNY   89  73  59 SW8       29.86R HX  97
RALEIGH        PTSUNNY   87  75  67 CALM      29.87S HX  96

$$

ANZ530>537-310000-
MARINE OBSERVATIONS

STATION/POSITION TIME  TEMP    WIND        PRES
                       AIR SEA DIR/SP/G
                 (UTC) (F)     (DEG/KT/KT) (MB)
THOMAS PT LIGHT  2200   78 81  220/  9/ 10 1011.3F
BALT KEY BRIDGE  2200   80     180/  5/  8 1010.3F
COVE POINT       2200   76     180/  9/ 11 1012.3R
LEWISETTA        2200   77 85  320/ 15/ 19 1011.2R
SOLOMONS ISLAND  2200      84                N/A
PINEY POINT      2200          310/ 12/ 14   N/A

$$



USA.gov is the U.S. government's official web portal to all federal, state and local government web resources and services.